Location: Bagnolo San Vito
(45.0833°N, 10.8833°E)
Time: 23:05:26
(UTC+00:00)

Cosmos 1727 Rocket - Pass Details

Date: 03 March 2021
Orbit: 961 x 996 km, 82.9° (Epoch: 17 April)

Event Time Altitude Azimuth Distance (km) Brightness Sun altitude
Rises 18:42:36 0° 357° (N) 3,658 7.2 -17.7°
Reaches altitude 10° 18:45:17 10° 5° (N) 2,708 6.4 -18.2°
Maximum altitude 18:51:05 40° 74° (ENE) 1,385 4.4 -19.2°
Enters shadow 18:52:56 33° 112° (ESE) 1,572 4.5 -19.5°
